Regional Weather Roundup
Issued by NWS

Home | Current Version | Previous Version | Graphics & Text | Print | Product List | Glossary On
Versions: 1 2 3 4 5 6 7 8 9 10 11 12 13 14 15 16 17 18 19 20 21 22 23 24 25 26 27 28 29 30 31 32 33 34 35 36 37 38 39 40 41 42 43 44 45 46 47 48 49 50
000
ASUS43 KBIS 271102
RWRND

NORTH DAKOTA REGIONAL WEATHER ROUNDUP
NATIONAL WEATHER SERVICE BISMARCK ND
600 AM CDT WED JUL 27 2016

NOTE: "FAIR" INDICATES FEW OR NO CLOUDS BELOW 12,000 FEET WITH NO
SIGNIFICANT WEATHER AND/OR OBSTRUCTIONS TO VISIBILITY.


NDZ001>003-009>011-017-271200-
NORTHWEST NORTH DAKOTA

CITY           SKY/WX    TMP DP  RH WIND       PRES   REMARKS
WILLISTON      CLOUDY    60  54  80 W3        30.14R
MINOT          CLEAR     60  56  86 CALM      30.11R
MINOT AFB      CLEAR     60  56  87 NE1       30.10R
$$

NDZ018>021-031>035-040>046-271200-
SOUTHWEST NORTH DAKOTA

CITY           SKY/WX    TMP DP  RH WIND       PRES   REMARKS
BISMARCK       MOCLDY    62  60  93 CALM      30.09R
DICKINSON      CLOUDY    55  54  96 N3        30.09R
GARRISON         N/A     59  59 100 N3        30.10R
HETTINGER ARPT CLOUDY    53  51  93 CALM      30.12R FOG
$$

NDZ004>008-012>016-024-026-027-054-271200-
NORTHEAST NORTH DAKOTA

CITY           SKY/WX    TMP DP  RH WIND       PRES   REMARKS
GRAND FORKS    CLOUDY    63  59  87 N8        30.04S
GRND FRKS AFB  CLOUDY    61  58  90 N6        30.05S
DEVILS LAKE    CLOUDY    60  56  86 NE6       30.09F
$$

NDZ022-023-025-028>030-036>039-047>053-271200-
SOUTHEAST NORTH DAKOTA

CITY           SKY/WX    TMP DP  RH WIND       PRES   REMARKS
FARGO          CLOUDY    65  62  90 N9        29.99S
JAMESTOWN      PTCLDY    61  60  97 NW5       30.05R
$$





USA.gov is the U.S. government's official web portal to all federal, state and local government web resources and services.